Regional Weather Roundup
Issued by NWS

Home | Current Version | Previous Version | Text Only | Print | Product List | Glossary On
Versions: 1 2 3 4 5 6 7 8 9 10 11 12 13 14 15 16 17 18 19 20 21 22 23 24 25 26 27 28 29 30 31 32 33 34 35 36 37 38 39 40 41 42 43 44 45 46 47 48 49 50
279
ASUS43 KLMK 231002
RWRKY
KENTUCKY REGIONAL WEATHER ROUNDUP
NATIONAL WEATHER SERVICE LOUISVILLE KY
600 AM EDT MON APR 23 2018

NOTE "FAIR" INDICATES FEW OR NO CLOUDS BELOW 12,000 FEET
WITH NO SIGNIFICANT WEATHER AND/OR OBSTRUCTIONS TO VISIBILITY.

KYZ001>023-026-027-061>063-070>075-231100-
WESTERN AND SOUTH CENTRAL KENTUCKY

CITY           SKY/WX    TMP DP  RH WIND       PRES   REMARKS
PADUCAH        LGT RAIN  55  53  93 NE15G24   29.75F FOG
HENDERSON      LGT RAIN  53  51  93 E17G24    29.89S
OWENSBORO      CLOUDY    54  51  90 E12G22    29.91R
HOPKINSVILLE   DRIZZLE   57  57 100 SE17G24   29.83R FOG
BOWLING GREEN  LGT RAIN  57  55  93 E15G23    29.92R
GLASGOW        NOT AVBL
$$

KYZ024-025-028>034-038-045-046-053-231100-
NORTH CENTRAL KENTUCKY

CITY           SKY/WX    TMP DP  RH WIND       PRES   REMARKS
LOUISVILLE/SDF RAIN      52  48  86 E6        30.03S
LOUISVILLE/LOU RAIN      52  49  89 NE6       30.03S
FORT KNOX      LGT RAIN  53  52  99 E12       30.00S
$$

KYZ035>037-039>044-047>052-055>060-089>105-231100-
NORTHEAST KENTUCKY

CITY           SKY/WX    TMP DP  RH WIND       PRES   REMARKS
LEXINGTON      RAIN      52  46  80 NE8       30.05F
COVINGTON      CLOUDY    54  33  45 E7        30.07S
FRANKFORT      RAIN      51  44  77 E7        30.04S
$$

KYZ054-064>069-076>088-106>120-231100-
SOUTHEAST KENTUCKY

CITY           SKY/WX    TMP DP  RH WIND       PRES   REMARKS
JACKSON        LGT RAIN  58  47  66 SE9       30.08R
LONDON         LGT RAIN  54  50  86 E7        30.03S
SOMERSET       NOT AVBL
MIDDLESBORO    RAIN      56  50  80 SE9G23    30.06F
MONTICELLO     LGT RAIN  55  52  89 VRB5      30.00F
$$





USA.gov is the U.S. government's official web portal to all federal, state and local government web resources and services.